Location: Passau
(48.5721°N, 13.4363°E)
Time: 12:51:14
(UTC+02:00)

ISS - Pass Details

Date: 29 September 2020
Orbit: 418 x 420 km, 51.6° (Epoch: 21 October)

Event Time Altitude Azimuth Distance (km) Brightness Sun altitude
Rises 21:05:11 0° 291° (WNW) 2,370 1.6 -22.9°
Reaches altitude 10° 21:07:17 10° 290° (WNW) 1,504 0.2 -23.2°
Enters shadow 21:09:42 44° 284° (WNW) 596 -2.6 -23.6°
